DW3931 Ribes de Freser ES current weather conditions

sailwx.info

Wind from 126

Air temperature -1.7° C
Dewpoint -2.9° C

Last reported at 2020-Jan-27 08:09 UTC.
Time now 2020-Jan-27 08:55 UTC

Location: N 42°19' E 002°11'.
View on Google Maps.

See reports from other nearby stations

  
Tides and Currents Weather Stations Pressure Air Temp Water Temp Dewpoint Dewpoint Depression Visibility Wind Speed Wind Dir Waves Ship Positions
date/time (UTC)wind fromknots sea level pressurealtimeterstation pressurevisibilityair tempwater tempwave heightnotes
2020-Jan-27 08:09 126 -1.7
2020-Jan-27 08:03 126 0 gusting 1 -1.7
2020-Jan-27 07:53 126 0 gusting 1 -1.7
2020-Jan-27 07:48 126 -1.7
2020-Jan-27 07:44 126 0 gusting 1 -2.2
2020-Jan-27 07:39 126 0 gusting 1 -2.2
2020-Jan-27 07:33 126 -2.2
2020-Jan-27 07:28 126 -2.2
2020-Jan-27 07:24 126 0 gusting 1 -2.2
2020-Jan-27 07:18 126 -2.2
2020-Jan-27 07:13 126 -2.2
2020-Jan-27 07:09 126 -2.2
2020-Jan-27 07:03 126 -2.2
2020-Jan-27 06:58 126 -2.2
2020-Jan-27 06:53 126 -2.2
2020-Jan-27 06:48 126 -2.2
2020-Jan-27 06:43 126 0 gusting 1 -1.7
2020-Jan-27 06:38 126 0 gusting 1 -1.7
2020-Jan-27 06:33 126 -1.7
2020-Jan-27 06:28 126 0 gusting 2 -2.2
2020-Jan-27 06:23 143 0 gusting 2 -2.2
2020-Jan-27 06:19 157 -2.2
2020-Jan-27 06:13 157 -2.2
2020-Jan-27 06:08 157 -2.2
2020-Jan-27 06:04 157 -2.2
2020-Jan-27 05:58 157 -1.7
2020-Jan-27 05:49 157 0 gusting 1 -1.7
2020-Jan-27 05:43 157 1 gusting 1 -1.7
2020-Jan-27 05:38 157 -1.7
2020-Jan-27 05:34 157 -1.7
2020-Jan-27 05:28 157 -1.7
2020-Jan-27 05:24 157 -1.7
2020-Jan-27 05:18 157 -1.7
2020-Jan-27 05:13 157 -1.7
2020-Jan-27 05:09 157 0 gusting 1 -1.7
2020-Jan-27 05:03 157 -1.7
2020-Jan-27 04:58 157 0 gusting 1 -1.7
2020-Jan-27 04:54 157 0 gusting 1 -1.7
2020-Jan-27 04:49 157 -1.7
2020-Jan-27 04:43 157 -1.7
2020-Jan-27 04:38 157 0 gusting 1 -1.7
2020-Jan-27 04:28 157 0 gusting 2 -1.7
2020-Jan-27 04:24 146 -1.7
2020-Jan-27 04:18 146 0 gusting 2 -1.7
2020-Jan-27 04:13 146 0 gusting 2 -1.7
2020-Jan-27 04:09 116 1 gusting 2 -1.7
2020-Jan-27 04:04 204 -1.7
2020-Jan-27 03:58 204 -1.7
2020-Jan-27 03:54 204 -1.7
2020-Jan-27 03:49 204 0 gusting 1 -1.7
2020-Jan-27 03:44 204 0 gusting 1 -1.1
2020-Jan-27 03:38 204 1 gusting 1 -1.7
2020-Jan-27 03:34 204 1 gusting 1 -1.1
2020-Jan-27 03:29 204 -1.1
2020-Jan-27 03:18 204 -1.1
2020-Jan-27 03:13 204 -1.1
2020-Jan-27 03:08 203 0 gusting 1 -0.6
2020-Jan-27 03:03 203 -0.6
2020-Jan-27 02:58 203 -0.6
2020-Jan-27 02:54 203 1 gusting 2 -0.6
2020-Jan-27 02:49 282 0 gusting 1 -0.6
2020-Jan-27 02:43 282 0 gusting 1 -0.6
2020-Jan-27 02:39 282 -0.6
2020-Jan-27 02:34 282 -0.6
2020-Jan-27 02:29 282 -0.0
2020-Jan-27 02:23 282 0 gusting 1 -0.0
2020-Jan-27 02:18 282 -0.0
2020-Jan-27 02:13 282 -0.0
2020-Jan-27 02:09 282 -0.0
2020-Jan-27 02:03 282 0.6
2020-Jan-27 01:58 282 0.6
2020-Jan-27 01:53 282 0 gusting 0 0.6
2020-Jan-27 01:48 282 0.6
2020-Jan-27 01:43 282 0 gusting 1 0.6
2020-Jan-27 01:39 282 0.6
2020-Jan-27 01:33 282 0.6
2020-Jan-27 01:28 282 0 gusting 1 0.6
2020-Jan-27 01:23 282 0.6
2020-Jan-27 01:18 282 0.6
2020-Jan-27 01:13 282 0.6
2020-Jan-27 01:08 282 0.6
2020-Jan-27 01:04 282 0.6
2020-Jan-27 00:58 282 0.6
2020-Jan-27 00:53 282 0 gusting 0 1.1
2020-Jan-27 00:48 282 1.1
2020-Jan-27 00:43 282 1.1
2020-Jan-27 00:39 282 1.1
2020-Jan-27 00:33 282 1.1
2020-Jan-27 00:28 282 0 gusting 1 1.7
2020-Jan-27 00:23 282 1.7
2020-Jan-27 00:18 282 1.7
2020-Jan-27 00:13 282 1.7
2020-Jan-27 00:08 282 1 gusting 2 1.7
2020-Jan-27 00:03 331 1.7
2020-Jan-26 23:58 331 0 gusting 1 1.7
2020-Jan-26 23:54 331 0 gusting 1 2.2
2020-Jan-26 23:48 331 2.2
2020-Jan-26 23:43 331 2.2
2020-Jan-26 23:39 331 2.8
2020-Jan-26 23:34 331 0 gusting 1 2.8
2020-Jan-26 23:28 331 0 gusting 1 2.8
2020-Jan-26 23:24 331 0 gusting 1 2.8
2020-Jan-26 23:19 331 0 gusting 0 2.8
2020-Jan-26 23:08 331 2.8
2020-Jan-26 23:04 331 3.3
2020-Jan-26 22:59 331 3.3
2020-Jan-26 22:54 331 3.3
2020-Jan-26 22:49 331 0 gusting 1 3.3
2020-Jan-26 22:43 331 0 gusting 2 3.3
2020-Jan-26 22:38 331 1 gusting 2 3.3
2020-Jan-26 22:33 331 3.3
2020-Jan-26 22:29 331 3.3
2020-Jan-26 22:23 331 3.3
2020-Jan-26 22:18 331 3.3
2020-Jan-26 22:14 331 3.3
2020-Jan-26 22:08 331 3.3
2020-Jan-26 22:04 331 3.3
2020-Jan-26 21:58 331 3.3
2020-Jan-26 21:53 331 3.3
2020-Jan-26 21:49 331 3.3
2020-Jan-26 21:39 331 3.9
2020-Jan-26 21:33 331 3.9
2020-Jan-26 21:28 331 0 gusting 1 3.9
2020-Jan-26 21:23 331 0 gusting 1 3.9
2020-Jan-26 21:18 331 0 gusting 0 3.9
2020-Jan-26 21:13 331 3.9
2020-Jan-26 21:09 331 3.9
2020-Jan-26 21:03 331 3.9
2020-Jan-26 20:58 331 3.9
2020-Jan-26 20:53 331 0 gusting 0 3.9
2020-Jan-26 20:48 331 3.9
2020-Jan-26 20:43 331 3.9
2020-Jan-26 20:38 331 3.9
2020-Jan-26 20:33 331 3.9
2020-Jan-26 20:28 331 3.9
2020-Jan-26 20:23 331 3.9
2020-Jan-26 20:18 331 0 gusting 0 3.9
2020-Jan-26 20:13 331 3.9
2020-Jan-26 20:08 331 3.9
2020-Jan-26 20:04 331 3.9
2020-Jan-26 19:58 331 3.9
2020-Jan-26 19:53 331 3.9
2020-Jan-26 19:48 331 3.9
2020-Jan-26 19:39 331 0 gusting 0 3.9
2020-Jan-26 19:33 331 3.9
2020-Jan-26 19:28 331 3.9
2020-Jan-26 19:23 331 3.9
2020-Jan-26 19:18 331 4.4
2020-Jan-26 19:13 331 4.4
2020-Jan-26 19:08 331 4.4
2020-Jan-26 19:03 331 4.4
2020-Jan-26 18:58 331 4.4
2020-Jan-26 18:53 331 4.4
2020-Jan-26 18:48 331 4.4
2020-Jan-26 18:43 331 4.4
2020-Jan-26 18:39 331 4.4
2020-Jan-26 18:33 331 4.4
2020-Jan-26 18:28 331 4.4
2020-Jan-26 18:24 331 4.4
2020-Jan-26 18:18 331 4.4
2020-Jan-26 18:13 331 4.4
2020-Jan-26 18:09 331 4.4
2020-Jan-26 18:03 331 4.4
2020-Jan-26 17:59 331 4.4
2020-Jan-26 17:53 331 4.4
2020-Jan-26 17:48 331 4.4
2020-Jan-26 17:44 331 4.4
2020-Jan-26 17:38 331 4.4
2020-Jan-26 17:33 331 4.4
2020-Jan-26 17:29 331 4.4
2020-Jan-26 17:24 331 4.4
2020-Jan-26 17:19 331 4.4
2020-Jan-26 17:13 331 0 gusting 1 4.4
2020-Jan-26 17:08 331 0 gusting 0 4.4
2020-Jan-26 17:03 331 4.4
2020-Jan-26 16:59 331 5.0
2020-Jan-26 16:54 331 0 gusting 1 5.0
2020-Jan-26 16:49 331 5.0
2020-Jan-26 16:43 331 0 gusting 1 5.0
2020-Jan-26 16:38 331 0 gusting 1 5.0
2020-Jan-26 16:33 332 5.0
2020-Jan-26 16:29 332 5.0
2020-Jan-26 16:23 332 5.0
2020-Jan-26 16:18 332 0 gusting 2 5.6
2020-Jan-26 16:14 332 1 gusting 2 5.6
2020-Jan-26 16:08 332 1 gusting 3 5.6
2020-Jan-26 16:03 343 1 gusting 3 5.6
2020-Jan-26 15:59 334 1 gusting 3 5.6
2020-Jan-26 15:54 307 0 gusting 6 6.1
2020-Jan-26 15:48 311 3 gusting 6 6.1
2020-Jan-26 15:44 306 1 gusting 6 6.1
2020-Jan-26 15:38 252 1 gusting 6 6.7
2020-Jan-26 15:33 275 0 gusting 3 6.7
2020-Jan-26 15:28 196 1 gusting 5 6.7
2020-Jan-26 15:24 255 1 gusting 4 7.2
2020-Jan-26 15:19 343 2 gusting 4 7.2
2020-Jan-26 15:14 246 1 gusting 3 7.2
2020-Jan-26 15:08 340 1 gusting 3 7.8
2020-Jan-26 15:03 253 0 gusting 3 7.8
2020-Jan-26 14:58 281 0 gusting 2 7.8
2020-Jan-26 14:54 287 7.8
2020-Jan-26 14:48 319 0 gusting 2 7.8
2020-Jan-26 14:43 315 0 gusting 2 7.8
2020-Jan-26 14:38 303 0 gusting 3 7.8
2020-Jan-26 14:28 224 7.8
2020-Jan-26 14:23 202 0 gusting 3 7.8
2020-Jan-26 14:18 202 1 gusting 3 7.8
2020-Jan-26 14:13 226 1 gusting 3 7.8
2020-Jan-26 14:08 230 1 gusting 4 7.8
2020-Jan-26 14:03 263 1 gusting 4 7.8
2020-Jan-26 13:58 254 1 gusting 3 7.8
2020-Jan-26 13:53 336 1 gusting 3 7.8
2020-Jan-26 13:48 231 1 gusting 3 7.8
2020-Jan-26 13:44 254 0 gusting 3 7.2
2020-Jan-26 13:38 219 1 gusting 3 7.2
2020-Jan-26 13:34 355 1 gusting 3 7.2
2020-Jan-26 13:28 278 1 gusting 5 7.2
2020-Jan-26 13:23 246 1 gusting 6 7.2
2020-Jan-26 13:19 252 3 gusting 6 7.2
2020-Jan-26 13:14 273 2 gusting 6 7.2
2020-Jan-26 13:08 302 3 gusting 6 7.2
2020-Jan-26 13:03 339 2 gusting 6 7.2
2020-Jan-26 12:58 257 1 gusting 6 7.2
2020-Jan-26 12:53 237 3 gusting 6 7.2
2020-Jan-26 12:43 299 1 gusting 6 7.2
2020-Jan-26 12:39 246 2 gusting 6 7.2
2020-Jan-26 12:33 272 1 gusting 5 7.8
2020-Jan-26 12:28 355 1 gusting 5 7.8
2020-Jan-26 12:23 298 1 gusting 4 7.8
2020-Jan-26 12:19 229 2 gusting 4 7.8
2020-Jan-26 12:13 319 1 gusting 3 8.3
2020-Jan-26 12:08 344 1 gusting 3 8.3
2020-Jan-26 12:03 323 0 gusting 2 8.3
2020-Jan-26 11:58 021 0 gusting 2 8.3
2020-Jan-26 11:53 005 0 gusting 3 8.3
2020-Jan-26 11:48 323 0 gusting 3 8.9
2020-Jan-26 11:43 231 1 gusting 5 8.9
2020-Jan-26 11:38 261 1 gusting 5 8.9
2020-Jan-26 11:33 028 0 gusting 2 8.3
2020-Jan-26 11:28 202 0 gusting 2 8.3
2020-Jan-26 11:24 305 0 gusting 4 7.8
2020-Jan-26 11:19 246 0 gusting 4 7.8
2020-Jan-26 11:13 248 2 gusting 4 7.8
2020-Jan-26 11:08 214 1 gusting 3 7.8
2020-Jan-26 10:59 289 0 gusting 2 7.8
2020-Jan-26 10:53 289 0 gusting 1 7.2
2020-Jan-26 10:48 289 0 gusting 1 7.2
2020-Jan-26 10:44 289 0 gusting 1 7.2
2020-Jan-26 10:39 216 0 gusting 1 6.7
2020-Jan-26 10:33 076 0 gusting 1 6.7
2020-Jan-26 10:28 076 6.1
2020-Jan-26 10:23 076 6.1
2020-Jan-26 10:18 076 5.6
2020-Jan-26 10:13 076 5.0
2020-Jan-26 10:08 076 4.4
2020-Jan-26 10:03 076 4.4
2020-Jan-26 09:58 076 4.4
2020-Jan-26 09:54 076 0 gusting 0 3.9
2020-Jan-26 09:48 076 3.9
2020-Jan-26 09:44 076 3.3
2020-Jan-26 09:38 076 0 gusting 1 3.3
2020-Jan-26 09:34 076 0 gusting 0 3.3
2020-Jan-26 09:28 076 2.8
2020-Jan-26 09:23 076 0 gusting 0 2.8
2020-Jan-26 09:18 076 2.8
2020-Jan-26 09:14 076 2.2
2020-Jan-26 09:08 076 2.2
2020-Jan-26 09:03 076 1.7
2020-Jan-26 08:58 076 1.7
2020-Jan-26 08:53 076 1.7
2020-Jan-26 08:49 076 1.7
2020-Jan-26 08:43 076 1.1
2020-Jan-26 08:38 076 0 gusting 0 1.1
2020-Jan-26 08:33 076 1.1
2020-Jan-26 08:28 076 1.1
2020-Jan-26 08:23 076 1.1
2020-Jan-26 08:19 076 1.1
2020-Jan-26 08:14 076 1.1
2020-Jan-26 08:09 076 0 gusting 1 1.1
2020-Jan-26 08:04 076 0 gusting 1 0.6
2020-Jan-26 07:58 076 0 gusting 1 0.6
2020-Jan-26 07:53 076 0.6
2020-Jan-26 07:48 076 0.6
2020-Jan-26 07:43 076 0.6
2020-Jan-26 07:38 076 0.6
2020-Jan-26 07:34 076 0.6
2020-Jan-26 07:29 076 0.6
2020-Jan-26 07:23 076 0.6
2020-Jan-26 07:19 076 0.6
2020-Jan-26 07:14 076 0 gusting 0 0.6
2020-Jan-26 07:08 076 0.6
2020-Jan-26 07:04 076 0.6
2020-Jan-26 06:59 076 0 gusting 1 0.6
2020-Jan-26 06:53 076 0 gusting 0 0.6
2020-Jan-26 06:48 076 0.6
2020-Jan-26 06:43 076 0.6
2020-Jan-26 06:38 076 0.6
2020-Jan-26 06:33 076 0 gusting 1 0.6
2020-Jan-26 06:29 076 0.6
2020-Jan-26 06:23 076 0 gusting 0 0.6
2020-Jan-26 06:18 076 0 gusting 0 -0.0
2020-Jan-26 06:13 076 -0.0
2020-Jan-26 06:08 076 -0.0
2020-Jan-26 06:04 076 -0.0
2020-Jan-26 05:58 076 -0.0
2020-Jan-26 05:54 076 -0.0
2020-Jan-26 05:48 076 -0.0
2020-Jan-26 05:44 076 -0.0
2020-Jan-26 05:39 076 -0.0
2020-Jan-26 05:34 076 0 gusting 1 -0.0
2020-Jan-26 05:28 076 0 gusting 1 -0.0
2020-Jan-26 05:23 076 0 gusting 1 -0.0
2020-Jan-26 05:18 076 -0.0
2020-Jan-26 05:13 076 0 gusting 0 -0.0
2020-Jan-26 05:08 076 -0.0
2020-Jan-26 05:04 076 -0.0
2020-Jan-26 04:58 076 0 gusting 1 -0.0
2020-Jan-26 04:53 076 -0.0
2020-Jan-26 04:49 076 -0.0
2020-Jan-26 04:44 076 0 gusting 1 -0.0
2020-Jan-26 04:38 076 0 gusting 1 -0.0
2020-Jan-26 04:34 076 0 gusting 1 -0.0
2020-Jan-26 04:28 076 0 gusting 1 -0.0
2020-Jan-26 04:24 076 -0.0
2020-Jan-26 04:19 076 -0.0
2020-Jan-26 04:13 076 0 gusting 1 -0.0
2020-Jan-26 04:08 076 -0.0
2020-Jan-26 04:03 076 -0.0
2020-Jan-26 03:58 076 0 gusting 2 -0.0
2020-Jan-26 03:53 076 0 gusting 2 -0.0
2020-Jan-26 03:49 076 -0.0
2020-Jan-26 03:43 076 0 gusting 1 -0.0
2020-Jan-26 03:38 076 -0.0
2020-Jan-26 03:33 076 0 gusting 1 -0.0
2020-Jan-26 03:29 076 -0.0
2020-Jan-26 03:23 076 -0.0
2020-Jan-26 03:18 076 0 gusting 1 -0.0
2020-Jan-26 03:13 076 -0.0
2020-Jan-26 03:08 076 -0.0
2020-Jan-26 03:04 076 0 gusting 0 -0.0
2020-Jan-26 02:58 076 0 gusting 1 -0.0
2020-Jan-26 02:53 076 0.6
2020-Jan-26 02:48 076 0 gusting 1 0.6
2020-Jan-26 02:43 076 0 gusting 1 0.6
2020-Jan-26 02:38 069 0 gusting 1 0.6
2020-Jan-26 02:33 069 0.6
2020-Jan-26 02:28 069 0.6
2020-Jan-26 02:23 069 0.6
2020-Jan-26 02:18 069 0.6
2020-Jan-26 02:13 069 0.6
2020-Jan-26 02:09 069 0 gusting 0 0.6
2020-Jan-26 02:03 069 0 gusting 0 0.6
2020-Jan-26 01:58 069 0.6
2020-Jan-26 01:53 069 0 gusting 1 0.6
2020-Jan-26 01:49 069 0 gusting 1 0.6
2020-Jan-26 01:43 069 0.6
2020-Jan-26 01:39 069 0.6
2020-Jan-26 01:33 069 0.6
2020-Jan-26 01:28 069 0.6
2020-Jan-26 01:24 069 1.1
2020-Jan-26 01:18 069 1.1
2020-Jan-26 01:08 069 1.1
2020-Jan-26 01:03 069 1.1
2020-Jan-26 00:59 069 1.1
2020-Jan-26 00:53 069 1.1
2020-Jan-26 00:48 069 1.1
2020-Jan-26 00:43 069 1.1
2020-Jan-26 00:38 069 1.1
2020-Jan-26 00:33 069 1.1
2020-Jan-26 00:28 069 1.1
2020-Jan-26 00:23 069 0 gusting 1 1.1
2020-Jan-26 00:19 069 1.1
2020-Jan-26 00:14 069 0 gusting 1 1.1
2020-Jan-26 00:09 069 1.1
2020-Jan-26 00:03 069 1.1
2020-Jan-25 23:58 069 0.6
2020-Jan-25 23:53 069 0.6
2020-Jan-25 23:49 069 0.6
2020-Jan-25 23:43 069 1.1
2020-Jan-25 23:38 069 1.1
2020-Jan-25 23:34 069 1.1
2020-Jan-25 23:29 069 1.1
2020-Jan-25 23:23 069 1.1
2020-Jan-25 23:18 069 1.1
2020-Jan-25 23:14 069 1.1
2020-Jan-25 23:09 069 1.1
2020-Jan-25 23:03 069 1.1
2020-Jan-25 22:58 069 1.1
2020-Jan-25 22:53 069 1.1
2020-Jan-25 22:48 069 1.1
2020-Jan-25 22:43 069 1.1
2020-Jan-25 22:38 069 1.1
2020-Jan-25 22:33 069 1.1
2020-Jan-25 22:29 069 1.1
2020-Jan-25 22:23 069 1.1
2020-Jan-25 22:19 069 1.1
2020-Jan-25 22:13 069 0 gusting 1 1.1
2020-Jan-25 22:08 069 1.1
2020-Jan-25 22:03 069 1 gusting 2 1.1
2020-Jan-25 21:58 069 1.1
2020-Jan-25 21:54 069 1.1
2020-Jan-25 21:48 068 0 gusting 3 1.1
2020-Jan-25 21:43 102 0 gusting 1 1.7
2020-Jan-25 21:34 102 1.7
2020-Jan-25 21:29 102 1.7
2020-Jan-25 21:18 102 0 gusting 1 2.2
2020-Jan-25 21:09 101 2.2
2020-Jan-25 21:03 101 0 gusting 1 2.2
2020-Jan-25 20:53 101 1 gusting 2 2.2
2020-Jan-25 20:49 098 1 gusting 2 2.2
2020-Jan-25 20:39 190 2.2
2020-Jan-25 20:23 190 2.2
2020-Jan-25 20:08 190 2.2
2020-Jan-25 19:59 190 2.2
2020-Jan-25 19:49 190 2.2
2020-Jan-25 19:43 190 2.2
2020-Jan-25 19:38 190 2.2
2020-Jan-25 19:34 190 0 gusting 1 2.2
2020-Jan-25 19:29 190 2.2
2020-Jan-25 19:24 190 2.2
2020-Jan-25 19:19 190 2.2
2020-Jan-25 19:14 190 2.2
2020-Jan-25 19:08 190 2.2
2020-Jan-25 19:03 190 2.2
2020-Jan-25 18:58 190 2.2
2020-Jan-25 18:54 190 2.2
2020-Jan-25 18:49 190 2.2
2020-Jan-25 18:44 190 2.8
2020-Jan-25 18:38 190 2.8
2020-Jan-25 18:33 190 2.8
2020-Jan-25 18:29 190 2.8
2020-Jan-25 18:23 190 2.8
2020-Jan-25 18:19 190 2.8
2020-Jan-25 18:14 190 2.8
2020-Jan-25 18:08 191 0 gusting 1 2.8
2020-Jan-25 18:03 191 3.3
2020-Jan-25 17:59 191 3.3
2020-Jan-25 17:54 191 0 gusting 1 3.3
2020-Jan-25 17:49 191 3.3
2020-Jan-25 17:44 191 3.9
2020-Jan-25 17:39 232 3.9
2020-Jan-25 17:34 232 3.9
2020-Jan-25 17:29 232 3.9
2020-Jan-25 17:24 232 0 gusting 1 3.9
2020-Jan-25 17:19 232 3.9
2020-Jan-25 17:13 232 3.9
2020-Jan-25 17:09 232 3.9
2020-Jan-25 17:04 232 4.4
2020-Jan-25 16:59 232 4.4
2020-Jan-25 16:54 232 0 gusting 1 4.4
2020-Jan-25 16:49 232 4.4
2020-Jan-25 16:44 232 4.4
2020-Jan-25 16:38 232 0 gusting 1 5.0
2020-Jan-25 16:33 232 1 gusting 1 5.0
2020-Jan-25 16:29 232 1 gusting 1 5.0
2020-Jan-25 16:24 232 0 gusting 1 5.6
2020-Jan-25 16:18 232 5.6
2020-Jan-25 16:13 232 6.1
2020-Jan-25 16:08 232 6.1
2020-Jan-25 16:03 232 6.1
2020-Jan-25 15:59 232 0 gusting 1 6.1
2020-Jan-25 15:54 232 0 gusting 0 6.1
2020-Jan-25 15:48 232 6.1
2020-Jan-25 15:44 232 0 gusting 1 6.1
2020-Jan-25 15:39 232 5.6
2020-Jan-25 15:33 232 0 gusting 1 5.6
2020-Jan-25 15:28 232 0 gusting 1 5.6
2020-Jan-25 15:23 232 5.6
2020-Jan-25 15:18 232 5.6
2020-Jan-25 15:13 232 0 gusting 0 5.6
2020-Jan-25 15:08 232 5.6
2020-Jan-25 15:04 232 5.6
2020-Jan-25 14:59 232 0 gusting 2 5.6
2020-Jan-25 14:54 232 5.6
2020-Jan-25 14:48 232 5.6
2020-Jan-25 14:44 232 5.6
2020-Jan-25 14:39 232 5.0
2020-Jan-25 14:33 232 5.0
2020-Jan-25 14:28 232 0 gusting 1 5.0
2020-Jan-25 14:24 232 5.0
2020-Jan-25 14:19 232 0 gusting 1 5.0
2020-Jan-25 14:14 232 5.0
2020-Jan-25 14:08 232 5.0
2020-Jan-25 14:04 232 0 gusting 1 5.0
2020-Jan-25 13:58 232 5.0
2020-Jan-25 13:53 232 4.4
2020-Jan-25 13:48 232 4.4
2020-Jan-25 13:43 232 0 gusting 0 4.4
2020-Jan-25 13:38 232 4.4
2020-Jan-25 13:33 232 0 gusting 0 4.4
2020-Jan-25 13:28 232 4.4
2020-Jan-25 13:23 232 4.4
2020-Jan-25 13:18 232 4.4
2020-Jan-25 13:13 232 0 gusting 0 4.4
2020-Jan-25 13:08 232 4.4
2020-Jan-25 13:03 232 4.4
2020-Jan-25 12:58 232 4.4
2020-Jan-25 12:54 232 4.4
2020-Jan-25 12:49 232 4.4
2020-Jan-25 12:43 232 4.4
2020-Jan-25 12:38 232 4.4
2020-Jan-25 12:34 232 4.4
2020-Jan-25 12:28 232 4.4
2020-Jan-25 12:23 232 4.4
2020-Jan-25 12:18 232 4.4
2020-Jan-25 12:13 232 4.4
2020-Jan-25 12:08 232 3.9
2020-Jan-25 12:03 232 0 gusting 0 3.9
2020-Jan-25 11:58 232 3.9
2020-Jan-25 11:53 232 3.9
2020-Jan-25 11:49 232 3.9
2020-Jan-25 11:44 232 3.9
2020-Jan-25 11:38 232 3.9
2020-Jan-25 11:34 232 3.9
2020-Jan-25 11:29 232 3.9
2020-Jan-25 11:23 232 3.9
2020-Jan-25 11:19 232 0 gusting 1 3.9
2020-Jan-25 11:13 232 0 gusting 1 3.3
2020-Jan-25 11:09 232 3.3
2020-Jan-25 11:03 232 3.3
2020-Jan-25 10:59 232 3.3
2020-Jan-25 10:54 232 3.3
2020-Jan-25 10:49 232 3.3
2020-Jan-25 10:43 232 3.3
2020-Jan-25 10:38 232 0 gusting 1 3.3
2020-Jan-25 10:33 232 2.8
2020-Jan-25 10:28 232 0 gusting 1 2.8
2020-Jan-25 10:24 232 2.8
2020-Jan-25 10:19 232 0 gusting 1 2.8
2020-Jan-25 10:14 232 0 gusting 1 2.8
2020-Jan-25 10:08 232 0 gusting 1 2.8
2020-Jan-25 10:03 232 2.8
2020-Jan-25 09:59 232 0 gusting 1 2.8
2020-Jan-25 09:54 232 0 gusting 2 2.8
2020-Jan-25 09:48 231 0 gusting 2 2.2
2020-Jan-25 09:44 245 0 gusting 1 2.2
2020-Jan-25 09:38 245 0 gusting 1 2.2
2020-Jan-25 09:34 245 2.2
2020-Jan-25 09:28 245 0 gusting 0 1.7
2020-Jan-25 09:23 245 1.7
2020-Jan-25 09:19 245 0 gusting 1 1.7
2020-Jan-25 09:13 245 1.7
2020-Jan-25 09:08 245 1.7
2020-Jan-25 09:04 245 0 gusting 1 1.7
2020-Jan-25 08:58 245 0 gusting 1 1.7
2020-Jan-25 08:54 245 0 gusting 1 1.7
2020-Jan-25 08:49 245 0 gusting 1 1.1
2020-Jan-25 08:43 245 1.1
2020-Jan-25 08:38 245 0 gusting 1 1.1
2020-Jan-25 08:34 245 0 gusting 1 1.1
2020-Jan-25 08:29 246 0 gusting 1 1.1
2020-Jan-25 08:24 246 0 gusting 0 1.1
2020-Jan-25 08:19 246 0.6
2020-Jan-25 08:14 246 0.6
2020-Jan-25 08:08 246 0.6
2020-Jan-25 08:03 246 0.6